Location: Newark
(55.4390°N, 25.0170°E)
Time: 02:00:48
(UTC+00:00)

Envisat - Pass Details

Date: 08 March 2021
Orbit: 764 x 766 km, 98.1° (Epoch: 18 April)

Event Time Altitude Azimuth Distance (km) Brightness Sun altitude
Rises 03:29:34 0° 19° (NNE) 3,249 6.7 -12.6°
Reaches altitude 10° 03:32:03 10° 27° (NNE) 2,317 6.0 -12.3°
Maximum altitude 03:36:49 38° 96° (E) 1,158 4.6 -11.6°
Drops below altitude 10° 03:41:32 10° 164° (SSE) 2,300 5.6 -10.9°
Sets 03:43:58 0° 173° (S) 3,221 6.2 -10.6°
